TimePST,TemperatureF,Dew PointF,Humidity,Sea Level PressureIn,VisibilityMPH,Wind Direction,Wind SpeedMPH,Gust SpeedMPH,PrecipitationIn,Events,Conditions,WindDirDegrees,DateUTC
12:11 AM,46.4,46.4,100,30.14,0.5,Calm,Calm,-,N/A,Fog,Fog,0,2013-01-24 08:11:00
12:27 AM,46.4,46.4,100,30.14,0.2,Calm,Calm,-,N/A,Fog,Fog,0,2013-01-24 08:27:00
12:56 AM,46.9,46.9,100,30.14,1.0,Calm,Calm,-,N/A,,Overcast,0,2013-01-24 08:56:00
12:58 AM,46.4,46.4,100,30.13,1.5,Calm,Calm,-,N/A,,Overcast,0,2013-01-24 08:58:00
1:02 AM,46.4,46.4,100,30.14,3.0,Calm,Calm,-,N/A,,Overcast,0,2013-01-24 09:02:00
1:13 AM,46.4,46.4,100,30.14,9.0,Calm,Calm,-,N/A,,Overcast,0,2013-01-24 09:13:00
1:34 AM,46.4,46.4,100,30.15,2.5,Calm,Calm,-,N/A,,Overcast,0,2013-01-24 09:34:00
1:37 AM,46.4,46.4,100,30.14,1.2,Calm,Calm,-,N/A,,Overcast,0,2013-01-24 09:37:00
1:40 AM,46.4,46.4,100,30.14,0.8,Calm,Calm,-,N/A,,Overcast,0,2013-01-24 09:40:00
1:56 AM,46.9,46.9,100,30.16,1.0,Calm,Calm,-,N/A,,Overcast,0,2013-01-24 09:56:00
2:04 AM,46.4,46.4,100,30.14,1.5,Calm,Calm,-,N/A,,Overcast,0,2013-01-24 10:04:00
2:08 AM,46.4,46.4,100,30.15,3.0,Calm,Calm,-,N/A,,Overcast,0,2013-01-24 10:08:00
2:18 AM,46.4,46.4,100,30.15,4.0,Calm,Calm,-,N/A,,Overcast,0,2013-01-24 10:18:00
2:34 AM,46.4,46.4,100,30.14,6.0,Variable,3.5,-,0.00,Rain,Light Rain,0,2013-01-24 10:34:00
2:56 AM,47.8,47.8,100,30.14,10.0,Variable,3.5,-,0.00,,Overcast,0,2013-01-24 10:56:00
3:03 AM,48.2,48.2,100,30.14,10.0,Variable,3.5,-,N/A,,Overcast,0,2013-01-24 11:03:00
3:56 AM,48.9,48.9,100,30.13,10.0,Variable,4.6,-,N/A,,Overcast,0,2013-01-24 11:56:00
4:56 AM,47.8,47.8,100,30.13,10.0,Variable,3.5,-,N/A,,Overcast,0,2013-01-24 12:56:00
5:31 AM,46.4,46.4,100,30.13,1.5,Calm,Calm,-,N/A,,Mostly Cloudy,0,2013-01-24 13:31:00
5:33 AM,46.4,46.4,100,30.13,1.0,Calm,Calm,-,N/A,,Mostly Cloudy,0,2013-01-24 13:33:00
5:35 AM,46.4,46.4,100,30.13,0.5,Calm,Calm,-,N/A,Fog,Fog,0,2013-01-24 13:35:00
5:49 AM,46.4,46.4,100,30.13,1.0,Calm,Calm,-,N/A,,Overcast,0,2013-01-24 13:49:00
5:56 AM,45.9,45.9,100,30.14,2.5,Calm,Calm,-,N/A,,Overcast,0,2013-01-24 13:56:00
6:08 AM,46.4,46.4,100,30.13,1.2,NW,3.5,-,N/A,,Overcast,310,2013-01-24 14:08:00
6:11 AM,46.4,46.4,100,30.13,0.8,Calm,Calm,-,N/A,,Overcast,0,2013-01-24 14:11:00
6:17 AM,46.4,46.4,100,30.13,0.5,Calm,Calm,-,N/A,Fog,Fog,0,2013-01-24 14:17:00
6:26 AM,46.4,46.4,100,30.13,0.8,Calm,Calm,-,N/A,,Overcast,0,2013-01-24 14:26:00
6:56 AM,45.9,45.9,100,30.14,1.5,Calm,Calm,-,N/A,,Overcast,0,2013-01-24 14:56:00
7:06 AM,46.4,46.4,100,30.13,2.5,Calm,Calm,-,N/A,,Overcast,0,2013-01-24 15:06:00
7:13 AM,46.4,46.4,100,30.13,4.0,Calm,Calm,-,N/A,,Overcast,0,2013-01-24 15:13:00
7:56 AM,45.0,45.0,100,30.14,8.0,Calm,Calm,-,N/A,,Overcast,0,2013-01-24 15:56:00
8:56 AM,45.9,45.9,100,-9999,10.0,North,-9999.0,-,N/A,,Partly Cloudy,0,2013-01-24 16:56:00
9:56 AM,52.0,52.0,100,30.17,10.0,Variable,4.6,-,N/A,,Clear,0,2013-01-24 17:56:00
10:56 AM,54.0,54.0,100,30.20,7.0,WSW,4.6,-,N/A,,Scattered Clouds,240,2013-01-24 18:56:00
11:56 AM,54.0,52.9,96,30.19,8.0,South,6.9,-,N/A,,Clear,170,2013-01-24 19:56:00
12:56 PM,54.0,52.9,96,30.17,10.0,South,5.8,-,N/A,,Clear,180,2013-01-24 20:56:00
1:56 PM,55.9,52.9,89,30.17,10.0,SSE,8.1,-,N/A,,Clear,150,2013-01-24 21:56:00
2:56 PM,54.0,52.9,96,30.18,6.0,SW,4.6,-,N/A,,Partly Cloudy,220,2013-01-24 22:56:00
3:56 PM,52.9,52.9,100,30.18,7.0,Calm,Calm,-,N/A,,Clear,0,2013-01-24 23:56:00
4:56 PM,52.0,52.0,100,30.19,5.0,Calm,Calm,-,N/A,,Scattered Clouds,0,2013-01-25 00:56:00
5:56 PM,50.0,50.0,100,30.19,7.0,Calm,Calm,-,N/A,,Clear,0,2013-01-25 01:56:00
6:56 PM,48.9,48.9,100,30.20,10.0,SE,3.5,-,N/A,,Scattered Clouds,130,2013-01-25 02:56:00
7:56 PM,48.9,48.9,100,30.22,7.0,Calm,Calm,-,N/A,,Partly Cloudy,0,2013-01-25 03:56:00
8:29 PM,48.2,48.2,100,30.21,5.0,Calm,Calm,-,N/A,,Mostly Cloudy,0,2013-01-25 04:29:00
8:38 PM,48.2,48.2,100,30.21,6.0,Calm,Calm,-,N/A,,Mostly Cloudy,0,2013-01-25 04:38:00
8:56 PM,47.8,47.8,100,30.22,6.0,Calm,Calm,-,N/A,,Overcast,0,2013-01-25 04:56:00
9:35 PM,48.2,48.2,100,30.21,6.0,Calm,Calm,-,N/A,,Overcast,0,2013-01-25 05:35:00
9:56 PM,48.9,48.9,100,30.22,7.0,SSE,4.6,-,N/A,,Overcast,160,2013-01-25 05:56:00
10:56 PM,50.0,50.0,100,30.21,4.0,Variable,3.5,-,0.00,,Overcast,0,2013-01-25 06:56:00
11:56 PM,50.0,50.0,100,30.21,7.0,Calm,Calm,-,N/A,,Overcast,0,2013-01-25 07:56:00